Wetbulb
58.66 58.61 58.35 58.05 57.82 57.69 57.66 57.86 58.16 58.20 58.33 58.27 58.22 58.27 58.26 58.11 57.91 57.79 57.89 57.95 57.74 57.76 57.74 58.03 58.10 58.35 58.48 58.42 58.04 57.69 57.45 57.44 57.35 57.30 57.18 56.91 56.59 56.44 56.08 55.40 54.86 54.53 54.28 53.96 53.35 52.57 52.06 51.71 51.29 50.75 50.21 50.18 50.26 50.32 50.17 49.67 48.81 47.76 46.79 46.16 46.30 46.39 46.17 45.33 45.04 44.14 42.92 41.77 41.44
58.25 58.24 58.21 58.15 58.03 57.84 57.74 57.93 58.18 58.40 58.54 58.50 58.61 58.61 58.58 58.40 58.19 58.07 58.03 58.09 58.05 58.11 58.16 58.24 58.43 58.51 58.36 57.95 57.80 57.71 57.52 57.28 57.17 57.06 57.03 56.86 56.59 56.37 56.12 55.94 55.43 55.06 54.60 54.23 53.60 52.61 51.69 51.20 50.99 50.64 50.26 50.19 50.19 50.14 49.78 49.13 48.42 47.40 46.43 46.21 46.48 46.47 45.98 45.08 45.05 45.02 44.39 42.79 41.77
57.91 57.94 58.01 58.12 57.98 57.63 57.52 57.61 57.98 58.26 58.49 58.71 58.90 58.86 58.75 58.68 58.48 58.37 58.29 58.35 58.59 58.65 58.46 58.37 58.41 58.29 58.09 57.52 57.39 57.41 57.45 57.18 56.96 56.96 56.91 57.00 56.68 56.42 56.35 56.36 55.88 55.43 54.90 54.20 53.06 51.75 50.75 50.38 50.25 50.15 49.90 49.48 49.67 49.41 48.96 48.62 48.05 47.27 46.52 46.08 46.48 46.34 45.98 45.44 45.67 45.18 44.29 43.51 42.50
57.65 57.70 57.81 57.86 57.83 57.69 57.59 57.65 57.92 58.21 58.40 58.61 58.87 58.98 58.94 58.86 58.88 58.81 58.70 58.74 58.64 58.46 58.39 58.41 58.33 58.17 57.78 57.06 56.74 56.85 57.13 57.11 56.88 56.78 56.82 56.87 56.66 56.39 56.16 56.00 55.91 55.33 54.51 53.64 52.39 51.17 50.19 49.68 49.33 49.37 49.46 49.31 49.48 49.30 48.90 48.20 47.36 47.01 46.70 46.21 46.92 46.74 46.34 46.20 46.20 45.57 44.63 43.96 43.24
57.28 57.55 57.79 57.81 57.86 57.93 57.99 58.17 58.16 58.30 58.42 58.55 58.51 58.61 58.74 58.93 58.94 58.85 58.64 58.35 58.33 58.42 58.48 58.61 58.22 58.00 57.54 56.86 56.43 56.44 56.69 56.73 56.74 56.79 56.87 56.94 56.73 56.27 55.98 56.09 56.10 55.56 54.67 53.72 53.02 52.10 50.87 49.70 49.28 49.24 49.42 49.74 49.30 49.16 48.80 47.82 46.52 46.25 46.34 46.38 46.74 46.88 46.97 47.01 46.43 45.57 44.81 44.45 43.56
56.96 57.26 57.71 57.93 58.03 58.08 58.23 58.38 58.35 58.37 58.61 58.57 58.36 58.43 58.37 58.52 58.32 58.20 58.14 58.13 58.29 58.44 58.31 58.04 58.07 57.67 57.25 56.52 56.02 56.07 56.19 56.37 56.63 56.85 56.82 56.57 56.42 55.85 55.37 55.43 55.61 55.09 54.21 53.59 52.92 52.22 51.58 50.69 50.06 49.74 49.62 49.55 49.37 49.34 48.72 47.15 46.24 45.97 46.02 45.88 46.02 46.11 46.25 46.47 46.16 45.17 44.31 44.49 43.42
56.80 56.98 57.31 57.54 57.76 57.95 58.13 58.19 58.33 58.48 58.51 58.50 58.37 58.33 58.35 58.33 58.21 58.09 58.15 58.42 58.26 57.90 57.57 57.49 57.63 57.40 56.74 55.74 55.36 55.58 55.81 55.92 56.28 56.35 56.15 55.83 55.72 55.48 54.89 54.20 53.77 53.60 53.33 52.65 51.82 51.26 50.87 50.55 49.96 49.68 49.60 49.60 49.35 48.90 48.27 47.87 47.01 46.47 46.06 45.89 45.80 45.80 45.75 45.89 45.30 44.63 43.95 43.64 43.38
56.34 56.69 56.91 57.04 57.45 57.63 57.87 57.85 58.03 58.03 58.20 58.11 58.24 58.44 58.44 58.39 58.14 58.02 57.87 58.14 57.74 57.38 57.13 57.43 57.09 56.65 56.26 55.58 55.52 55.43 55.40 55.24 55.11 55.11 55.14 55.14 54.63 54.30 53.97 53.21 52.24 51.52 51.01 50.50 50.29 50.06 50.02 49.94 50.06 50.28 50.32 49.73 49.35 48.85 48.36 47.68 47.15 46.56 46.20 46.25 45.71 45.53 45.49 45.40 44.73 44.32 43.86 43.16 42.55
55.54 55.93 56.37 56.72 57.14 57.33 57.49 57.49 57.76 57.87 57.81 58.04 58.20 58.17 58.07 57.93 57.89 57.56 57.34 57.69 57.57 57.16 56.93 57.24 56.63 56.28 56.09 55.70 55.65 55.42 55.17 54.88 54.70 54.56 54.51 54.54 54.26 53.84 53.38 52.97 52.02 51.21 50.70 50.33 50.20 49.97 49.88 49.58 49.58 49.71 49.67 49.40 48.68 47.91 47.15 46.57 46.30 46.21 46.30 46.52 45.98 45.40 44.99 44.95 44.42 44.05 43.50 42.84 41.92
54.97 55.28 55.72 56.23 56.61 56.89 57.09 57.16 57.34 57.58 57.66 57.60 57.79 57.60 57.37 57.30 57.41 57.27 57.25 57.74 57.26 56.72 56.43 56.70 56.03 55.90 55.81 55.68 55.75 55.48 55.17 55.05 54.88 54.57 54.26 54.17 53.89 53.39 52.93 52.51 52.00 51.45 50.98 50.56 50.13 49.91 49.65 49.31 49.13 49.08 48.76 48.36 47.55 46.39 45.29 44.68 44.90 45.12 45.47 45.98 45.81 45.05 44.29 43.70 43.06 42.75 42.61 42.26 41.71
54.71 54.97 55.43 55.93 56.05 56.25 56.52 56.52 56.96 57.08 57.30 57.25 57.20 57.09 57.12 57.12 57.14 57.25 57.38 57.31 56.65 56.01 55.67 56.02 55.66 55.62 55.85 55.97 56.26 56.17 56.13 56.17 55.99 55.41 54.66 54.19 53.88 53.39 52.94 52.60 52.17 51.40 50.63 50.07 49.55 49.29 49.17 48.94 48.67 48.13 47.41 46.97 46.39 45.20 43.91 43.10 43.57 43.95 44.50 45.01 45.23 44.75 43.90 42.59 42.04 42.02 42.15 41.89 41.49
54.48 54.84 55.27 55.62 55.60 55.92 56.26 56.35 56.74 56.83 56.93 56.91 56.92 57.05 57.12 57.37 57.16 57.04 56.81 56.11 55.77 55.41 55.32 55.63 55.79 56.04 56.38 56.57 56.66 56.35 55.87 55.73 55.46 54.97 54.31 53.66 53.23 52.80 52.27 51.83 51.39 50.91 50.43 49.77 49.29 49.07 48.85 48.62 47.85 47.05 46.17 45.25 45.43 45.04 44.14 42.94 43.15 43.19 43.43 44.01 44.32 44.22 43.56 42.48 42.05 41.81 41.75 41.66 41.36
54.26 54.44 54.72 55.00 55.15 55.60 55.99 56.14 56.53 56.71 56.67 56.48 56.35 56.68 56.90 56.98 56.59 56.12 55.75 55.25 55.57 55.69 55.68 55.45 55.84 56.33 56.74 56.74 56.47 56.03 55.43 54.57 54.16 53.97 53.66 52.70 52.03 51.65 51.35 51.00 50.72 50.50 50.18 49.91 49.11 48.66 48.39 48.06 47.35 46.64 45.94 45.17 44.99 44.65 43.93 42.83 43.03 42.94 42.92 43.15 43.52 43.72 43.71 43.49 42.63 41.95 41.45 41.14 41.13
53.73 54.01 54.12 54.31 54.68 55.26 55.70 55.80 55.99 56.15 56.22 56.13 55.97 56.13 56.20 55.78 55.30 55.38 55.59 55.62 55.87 55.95 55.72 55.15 55.44 55.77 55.93 55.80 55.55 55.03 54.32 53.20 52.81 52.71 52.69 52.45 51.74 51.32 51.10 50.85 50.39 50.17 50.03 49.93 49.04 48.53 48.34 48.06 47.06 46.32 45.59 44.69 44.01 43.46 43.03 42.28 42.73 43.05 43.41 43.42 43.46 43.45 43.62 43.80 43.04 42.14 41.23 40.78 40.92
53.01 53.10 53.38 53.61 54.24 54.73 55.09 55.15 55.37 55.50 55.40 55.29 55.17 55.17 55.08 54.64 54.40 54.98 55.64 55.77 55.74 55.52 55.08 54.34 54.32 54.39 54.29 54.04 53.85 53.32 52.64 52.08 51.94 51.79 51.68 51.36 50.74 50.44 50.13 49.69 49.20 49.15 49.13 49.07 48.10 47.69 47.54 47.27 46.54 45.86 45.31 44.56 43.72 43.04 42.49 42.03 42.52 43.21 43.69 43.68 43.68 43.71 43.76 43.94 43.30 42.31 41.36 40.91 41.07
52.01 52.15 52.41 53.07 53.83 54.24 54.42 54.48 54.76 54.52 54.29 54.19 53.66 53.66 53.75 53.61 53.84 54.61 55.30 55.17 54.73 54.07 53.40 53.02 53.08 52.90 52.57 51.86 51.59 51.42 51.33 51.35 50.94 50.62 50.22 49.59 49.05 48.56 48.12 47.68 47.26 47.26 47.25 47.05 46.52 46.20 46.02 45.94 45.88 45.71 45.42 44.97 44.18 43.55 42.91 42.32 42.54 43.06 43.51 43.82 43.81 43.90 43.94 43.98 43.44 42.67 41.82 41.46 41.23
50.56 50.83 51.67 52.54 53.17 53.43 53.62 53.76 53.55 53.19 52.69 52.42 51.71 51.75 52.05 52.49 53.32 54.18 54.66 54.14 53.16 52.29 51.62 51.39 51.65 51.53 51.07 50.55 50.41 50.48 50.33 49.96 49.37 49.05 48.69 48.29 47.76 47.36 47.11 46.77 46.52 46.61 46.65 46.60 46.24 45.72 45.37 45.33 45.36 45.40 45.27 45.15 44.78 44.27 43.84 43.27 43.08 43.10 43.30 43.78 43.81 43.90 43.90 44.03 43.58 42.81 42.09 41.86 41.60
49.08 49.58 50.57 51.84 52.29 52.24 51.98 51.89 51.19 50.43 49.80 49.26 48.90 49.35 50.42 52.00 52.97 53.31 53.04 52.02 51.33 50.57 50.03 49.90 49.91 50.01 49.87 49.15 49.15 49.31 49.29 48.70 48.29 48.20 48.02 47.84 47.54 47.37 47.24 47.03 47.28 47.28 47.41 47.67 47.45 46.91 46.34 45.77 45.29 45.07 44.99 45.04 45.08 44.91 44.60 44.16 43.82 43.59 43.49 43.52 43.60 43.36 42.91 42.77 42.77 42.45 42.05 41.78 41.66
48.32 48.81 49.49 50.29 50.20 50.20 50.02 49.35 48.09 47.06 46.34 46.20 46.83 48.00 49.48 51.25 51.64 51.24 50.35 49.55 49.81 49.72 49.41 48.88 48.67 48.53 48.40 47.86 48.03 48.42 48.66 48.22 48.21 48.25 48.24 48.11 47.90 47.76 47.49 47.06 47.54 47.59 47.59 47.68 47.72 47.50 46.78 45.56 45.12 44.86 44.82 44.78 44.73 44.64 44.51 44.25 43.85 43.50 43.18 42.90 42.39 41.16 40.12 40.03 41.29 41.93 41.99 41.67 41.60
47.51 48.00 48.32 48.00 47.51 47.33 46.97 45.85 44.95 44.55 44.77 45.62 46.74 47.73 48.58 49.20 49.51 49.11 48.44 47.95 48.71 48.97 48.98 48.40 47.86 47.42 47.28 47.37 47.41 47.58 47.71 47.71 47.96 48.08 47.98 47.54 47.19 47.01 46.80 46.51 46.66 45.63 44.70 44.61 45.19 45.41 45.16 44.35 43.97 43.84 43.80 43.97 43.88 43.60 43.23 42.89 42.44 41.77 41.05 40.90 40.57 39.42 38.61 39.48 40.51 41.11 41.33 41.30 41.11
45.62 45.62 45.48 45.17 44.90 44.19 43.43 42.85 43.12 43.60 44.50 45.58 46.21 46.70 46.92 47.06 47.06 47.01 46.97 47.42 47.91 48.04 47.95 47.68 47.41 47.14 46.96 46.96 46.08 45.20 44.72 45.08 45.21 45.73 46.15 46.31 45.63 45.21 45.17 45.56 44.66 43.08 41.60 41.51 42.33 42.87 43.16 43.26 42.72 42.65 42.69 42.81 42.06 41.71 41.43 40.72 40.13 39.66 39.20 39.03 39.24 39.02 38.89 39.45 39.67 39.81 39.97 40.27 40.34
42.25 42.37 42.51 42.80 42.44 42.13 41.96 42.14 42.80 43.38 43.83 44.19 44.55 44.64 44.56 44.38 44.20 44.33 44.82 45.85 46.25 46.21 45.77 45.15 44.93 44.80 44.67 44.37 43.28 42.16 41.26 41.07 40.98 41.59 42.76 43.80 43.50 43.23 43.22 43.88 42.52 39.90 38.00 38.91 39.40 39.23 39.57 41.32 41.08 40.47 39.96 39.50 39.22 39.88 40.44 39.76 38.86 38.18 37.82 37.50 37.62 37.57 37.45 37.56 37.91 38.11 38.40 38.88 39.25
40.69 41.05 41.58 41.99 42.21 42.45 42.54 42.45 42.76 42.85 42.81 42.54 42.59 42.47 42.34 42.15 42.24 42.56 43.02 43.43 43.22 42.53 41.75 41.41 40.98 40.80 40.74 40.97 40.77 40.32 39.74 39.12 38.57 38.47 38.73 39.64 40.02 40.08 40.34 41.37 40.46 37.73 35.86 37.46 36.61 35.57 35.44 37.00 36.82 35.96 35.14 35.46 36.31 37.86 38.88 38.23 37.90 37.14 36.34 36.00 36.11 35.70 35.25 35.05 35.47 35.72 35.98 36.54 37.07
40.64 41.14 41.49 41.81 41.82 42.09 42.23 42.18 42.05 41.74 41.39 41.12 41.09 41.01 40.98 40.91 40.88 40.73 40.48 40.10 39.81 39.33 38.90 38.61 38.01 37.65 37.59 38.16 38.66 39.13 39.30 38.95 38.10 37.24 36.74 36.71 37.01 37.38 37.88 38.70 38.40 37.25 36.22 36.33 37.01 37.07 36.85 36.80 35.06 34.45 34.90 36.21 36.70 36.59 36.17 35.68 35.43 35.13 34.95 35.23 34.98 34.46 33.77 33.45 33.21 33.30 33.73 34.48 35.00
40.74 41.15 41.24 41.10 41.15 41.16 41.29 41.12 40.68 40.16 39.81 39.60 39.67 39.77 39.71 39.47 39.24 38.70 38.02 37.32 36.93 36.76 36.54 36.40 36.32 36.30 36.27 36.20 36.33 36.62 36.91 37.20 36.96 36.53 36.02 35.62 35.69 36.00 36.56 37.08 37.42 36.41 36.22 38.68 41.81 42.76 42.32 41.01 38.60 37.37 36.95 37.16 36.39 35.20 34.07 33.39 33.28 33.66 34.24 34.71 34.47 33.94 33.39 33.09 32.48 32.26 32.43 33.21 33.58
40.36 40.45 40.23 40.00 40.14 40.11 39.81 39.50 39.12 38.74 38.50 38.43 38.34 38.18 37.94 37.79 37.61 37.21 36.58 35.83 35.47 35.41 35.62 35.90 36.22 36.21 35.90 35.05 34.79 34.45 34.31 34.34 34.75 35.07 35.26 35.33 35.30 35.52 36.03 36.62 37.24 35.82 36.11 42.11 44.56 45.34 45.08 44.25 42.48 40.14 38.06 36.56 35.75 34.71 33.55 32.40 32.40 32.68 32.96 33.35 33.58 33.54 33.44 33.68 33.53 33.08 32.78 32.61 32.75
39.67 39.40 39.09 39.06 38.99 38.61 38.35 38.11 38.00 37.81 37.61 37.50 37.26 36.97 36.78 36.91 36.71 36.13 35.32 34.58 34.19 34.15 34.33 34.48 34.92 35.26 35.09 33.93 33.61 33.20 32.99 33.01 33.26 33.72 34.37 34.92 35.11 35.32 35.75 36.40 37.14 36.90 38.16 43.40 45.29 45.92 45.93 45.81 44.34 41.77 38.79 36.11 36.11 35.47 34.24 32.80 32.50 32.33 32.37 32.64 32.77 32.99 33.32 33.69 33.80 33.87 33.78 33.27 33.04
38.76 38.42 38.18 38.11 37.68 37.34 37.18 37.35 37.16 36.87 36.54 36.27 36.03 35.88 35.75 35.69 35.35 34.83 34.26 33.80 33.53 33.35 33.08 32.81 33.07 33.52 33.68 33.22 32.51 32.16 32.14 32.48 32.95 33.52 34.11 34.66 35.11 35.58 36.06 36.67 37.34 40.31 43.95 46.51 46.12 46.12 46.16 46.23 45.51 43.33 40.39 37.05 35.91 35.49 34.99 33.99 33.03 32.46 32.33 32.84 32.63 32.88 33.24 33.48 33.42 33.28 33.09 32.84 33.35
38.17 37.93 37.68 37.26 36.69 36.49 36.39 36.37 35.95 35.54 35.30 35.25 35.25 35.05 34.88 34.62 34.11 33.77 33.36 33.08 32.78 32.48 32.37 32.37 32.98 33.15 32.96 32.62 32.20 32.04 31.99 32.13 33.01 33.90 34.82 35.51 35.95 36.42 36.69 37.05 38.28 41.45 44.74 46.57 46.50 46.37 46.29 46.30 45.94 44.34 42.03 39.20 36.71 35.30 34.57 34.21 33.55 33.13 32.95 32.95 32.56 32.71 33.02 33.06 33.11 32.97 32.89 32.98 33.84
37.74 37.50 36.99 36.28 35.81 35.43 35.15 34.86 34.70 34.60 34.73 34.95 34.75 34.47 34.00 33.54 33.08 32.75 32.45 32.04 31.67 31.60 31.91 32.24 32.83 32.72 32.32 32.13 32.39 32.48 32.42 32.38 33.13 34.44 35.77 36.82 37.23 37.25 37.31 37.77 38.79 41.79 45.12 46.97 46.94 46.90 46.73 46.65 46.07 44.82 42.81 39.88 36.78 34.82 33.74 33.62 33.60 33.64 33.44 32.82 32.65 32.76 32.97 33.19 33.27 33.40 33.71 34.18 34.54
37.12 36.71 36.08 35.34 34.72 34.11 33.72 33.64 33.92 34.19 34.47 34.61 34.11 33.59 33.05 32.31 31.78 31.51 31.46 31.51 31.72 32.24 32.62 32.59 32.46 32.10 31.93 32.22 32.48 32.45 32.56 32.85 33.61 34.65 35.80 37.00 37.70 37.42 36.94 37.18 38.99 42.62 45.95 46.82 47.01 47.06 47.02 46.77 46.12 44.72 42.56 39.52 36.15 34.18 33.26 33.44 33.31 33.38 33.35 33.35 33.53 33.70 34.00 34.39 34.59 34.72 34.84 34.93 35.03
36.37 35.97 35.30 34.51 33.75 33.25 33.08 33.36 33.67 33.88 33.95 33.69 33.11 32.37 31.58 30.88 30.63 30.63 30.99 31.59 31.97 32.50 32.94 33.05 32.65 32.33 32.22 32.37 32.47 32.54 32.85 33.36 34.07 34.70 35.22 35.53 36.00 36.49 37.07 37.90 39.63 43.08 45.94 46.20 46.42 46.30 45.95 45.34 44.10 42.48 40.47 38.23 35.90 34.50 33.89 34.03 33.68 33.70 33.81 33.95 34.09 34.35 34.82 35.16 35.40 35.40 35.32 35.27 35.24
35.81 35.33 34.70 33.91 33.24 33.04 33.05 33.30 33.59 33.53 33.23 32.82 32.14 31.47 30.88 30.43 30.49 30.59 30.96 31.57 31.85 32.05 32.23 32.53 32.36 32.29 32.34 32.55 32.75 33.05 33.36 33.68 34.31 35.23 35.95 36.15 36.71 37.30 37.94 38.64 40.10 42.85 45.16 45.30 45.34 44.94 44.19 43.26 41.99 40.64 39.20 37.70 35.73 34.72 34.32 34.50 34.26 34.09 34.00 33.90 34.10 34.25 34.51 34.77 35.04 35.16 35.19 35.15 35.29
35.25 34.80 34.26 33.61 33.20 33.06 32.92 33.17 33.17 33.09 32.66 32.05 31.52 31.25 31.08 31.06 31.04 31.10 31.25 31.48 31.51 31.39 31.38 31.43 31.58 31.80 32.20 32.72 33.47 34.05 34.48 34.79 34.15 34.42 35.32 36.82 37.92 38.56 38.92 39.09 40.31 42.26 43.80 44.00 43.91 43.55 42.85 41.97 40.84 39.80 38.64 37.32 35.50 34.71 34.31 34.22 33.99 33.77 33.55 33.41 33.40 33.59 33.90 34.21 34.25 34.40 34.62 34.91 35.27
34.98 34.45 33.86 33.42 33.20 33.03 33.04 33.11 33.08 32.83 32.31 31.55 31.06 30.92 30.94 31.11 31.13 31.33 31.67 32.13 31.88 31.53 31.37 31.52 31.80 32.16 32.67 33.21 33.92 34.62 35.02 35.21 35.38 35.91 36.84 37.93 38.79 39.24 39.47 39.56 40.53 41.64 42.52 42.60 42.46 42.15 41.63 40.89 39.86 38.92 37.69 36.33 34.95 34.29 33.85 33.59 33.15 32.83 32.58 32.44 32.41 32.49 32.77 33.13 33.43 33.68 34.17 34.90 35.46
34.86 34.28 33.67 33.21 33.07 33.04 33.14 33.06 32.93 32.52 31.87 31.14 30.74 30.48 30.42 30.56 30.92 31.54 32.34 32.95 32.43 32.08 31.99 32.35 32.83 33.12 33.42 33.61 33.96 34.46 34.76 34.90 35.73 36.52 37.32 38.17 38.46 38.73 38.92 39.33 40.04 40.77 41.43 41.72 41.42 41.07 40.63 40.06 39.12 38.09 36.86 35.37 34.54 34.00 33.69 33.17 32.61 32.11 31.73 31.48 31.19 31.15 31.30 31.75 32.16 32.84 33.72 34.93 35.69
34.59 34.18 33.64 33.14 32.99 32.96 32.91 32.92 32.43 31.81 31.18 30.66 30.32 30.14 30.03 30.02 30.47 31.27 32.21 32.95 32.31 32.07 32.14 32.50 32.65 32.71 32.71 32.73 32.85 33.24 33.89 34.60 35.38 36.03 36.76 37.50 37.77 37.95 38.35 38.84 39.39 40.00 40.60 41.01 40.91 40.52 40.08 39.62 38.59 37.39 35.98 34.31 33.66 33.33 33.01 32.53 32.03 31.54 31.12 30.71 30.46 30.32 30.51 30.82 31.26 31.86 32.84 34.28 35.90
34.13 34.00 33.58 33.15 32.76 32.64 32.49 32.31 31.67 30.98 30.35 29.94 29.88 29.92 30.05 30.18 30.54 31.30 32.20 32.99 32.16 31.83 31.68 31.78 31.61 31.61 31.71 31.92 32.07 32.43 33.16 34.28 35.14 35.51 35.72 36.20 36.73 37.13 37.48 38.04 38.75 39.51 40.17 40.58 40.51 40.20 39.83 39.25 38.22 36.89 35.36 33.44 32.81 32.56 32.26 31.65 31.08 30.75 30.56 30.36 30.30 30.19 30.25 30.53 30.95 31.42 32.07 32.94 35.70
33.64 33.71 33.44 32.91 32.47 32.09 31.75 31.48 30.87 30.35 29.92 29.71 29.72 29.83 30.01 30.22 30.51 31.12 31.87 32.36 31.85 31.55 31.28 30.89 30.90 31.10 31.45 31.88 31.66 31.71 32.00 32.96 34.16 34.97 35.44 35.67 36.52 36.88 37.01 36.84 37.87 38.99 39.95 40.36 40.16 39.80 39.43 38.97 37.97 36.80 35.19 33.25 32.39 31.98 31.65 31.01 30.35 30.03 29.98 29.94 30.16 30.29 30.32 30.50 30.72 31.10 31.51 31.81 34.77
33.16 33.17 32.93 32.43 32.05 31.52 31.06 30.61 30.32 30.17 30.12 30.04 29.86 29.86 29.99 30.26 30.65 31.02 31.27 31.37 31.21 30.95 30.62 30.21 30.35 30.89 31.44 31.84 31.00 30.72 30.78 31.24 32.30 33.57 34.70 35.58 36.57 37.14 36.98 36.11 36.79 38.16 39.60 40.40 40.03 39.66 39.21 38.75 37.75 36.54 34.93 32.80 32.09 31.77 31.64 31.05 30.28 29.80 29.60 29.53 29.80 30.12 30.43 30.63 30.86 31.05 31.22 31.17 32.79
32.63 32.62 32.37 31.95 31.54 31.03 30.56 29.98 29.85 30.06 30.13 30.11 29.98 30.11 30.34 30.55 30.42 30.38 30.32 30.34 30.27 30.10 29.94 29.71 29.86 30.40 31.06 31.41 30.70 30.25 30.06 30.25 30.81 31.81 32.93 34.19 35.18 36.03 36.32 35.61 35.89 36.87 38.35 40.06 40.25 39.96 39.39 38.82 38.10 36.93 35.25 33.01 31.97 31.80 31.66 31.17 30.25 29.58 29.13 28.99 29.24 29.64 30.06 30.58 30.97 31.06 31.14 31.05 31.43
MSLP
1011.33 1011.57 1011.77 1012.05 1012.29 1012.53 1012.77 1012.97 1013.17 1013.33 1013.49 1013.69 1013.85 1014.01 1014.17 1014.33 1014.49 1014.65 1014.77 1014.89 1014.97 1015.05 1015.13 1015.25 1015.33 1015.45 1015.61 1015.77 1015.89 1016.05 1016.17 1016.29 1016.41 1016.49 1016.61 1016.77 1016.85 1016.93 1017.09 1017.29 1017.41 1017.57 1017.69 1017.77 1017.93 1018.09 1018.25 1018.37 1018.49 1018.57 1018.65 1018.77 1018.85 1018.97 1019.09 1019.29 1019.45 1019.65 1019.77 1019.89 1020.01 1020.09 1020.17 1020.33 1020.41 1020.45 1020.49 1020.57 1020.49
1011.33 1011.53 1011.77 1012.01 1012.25 1012.53 1012.77 1013.01 1013.17 1013.33 1013.45 1013.61 1013.73 1013.85 1014.05 1014.17 1014.33 1014.49 1014.61 1014.73 1014.81 1014.89 1015.05 1015.17 1015.25 1015.37 1015.53 1015.69 1015.77 1015.89 1016.05 1016.17 1016.33 1016.45 1016.57 1016.69 1016.77 1016.89 1017.05 1017.17 1017.33 1017.45 1017.57 1017.69 1017.85 1018.01 1018.13 1018.33 1018.45 1018.57 1018.61 1018.69 1018.85 1019.01 1019.09 1019.17 1019.37 1019.57 1019.73 1019.81 1019.89 1020.05 1020.17 1020.29 1020.29 1020.33 1020.37 1020.45 1020.49
1011.33 1011.53 1011.77 1011.97 1012.25 1012.53 1012.77 1012.97 1013.13 1013.29 1013.41 1013.49 1013.61 1013.77 1013.93 1014.09 1014.21 1014.33 1014.49 1014.61 1014.69 1014.81 1014.97 1015.13 1015.21 1015.33 1015.45 1015.61 1015.73 1015.85 1015.97 1016.09 1016.25 1016.41 1016.49 1016.61 1016.73 1016.85 1016.97 1017.09 1017.21 1017.33 1017.45 1017.61 1017.77 1017.93 1018.09 1018.25 1018.45 1018.53 1018.61 1018.77 1018.85 1018.97 1019.09 1019.21 1019.37 1019.49 1019.65 1019.73 1019.85 1020.05 1020.17 1020.17 1020.09 1020.13 1020.21 1020.29 1020.33
1011.33 1011.53 1011.77 1011.93 1012.17 1012.37 1012.57 1012.77 1012.97 1013.13 1013.25 1013.41 1013.61 1013.77 1013.89 1014.01 1014.13 1014.25 1014.41 1014.49 1014.69 1014.81 1014.89 1015.01 1015.13 1015.25 1015.41 1015.53 1015.69 1015.77 1015.89 1016.01 1016.17 1016.33 1016.45 1016.53 1016.65 1016.77 1016.89 1017.01 1017.17 1017.29 1017.45 1017.57 1017.77 1017.89 1018.05 1018.21 1018.41 1018.53 1018.65 1018.77 1018.85 1018.93 1019.05 1019.17 1019.37 1019.45 1019.61 1019.69 1019.81 1019.93 1020.05 1020.05 1020.05 1020.05 1020.13 1020.13 1020.21
1011.33 1011.45 1011.65 1011.85 1012.05 1012.21 1012.37 1012.57 1012.77 1013.01 1013.17 1013.37 1013.61 1013.77 1013.89 1014.01 1014.13 1014.25 1014.41 1014.53 1014.61 1014.73 1014.77 1014.89 1015.05 1015.21 1015.37 1015.49 1015.61 1015.77 1015.89 1016.01 1016.17 1016.29 1016.37 1016.49 1016.61 1016.77 1016.89 1017.01 1017.13 1017.25 1017.37 1017.49 1017.65 1017.81 1018.01 1018.17 1018.33 1018.49 1018.57 1018.65 1018.77 1018.89 1019.01 1019.17 1019.33 1019.45 1019.57 1019.69 1019.77 1019.85 1019.89 1019.93 1020.01 1020.09 1020.13 1020.17 1020.21
1011.29 1011.45 1011.61 1011.77 1011.97 1012.17 1012.33 1012.53 1012.73 1012.93 1013.17 1013.33 1013.53 1013.69 1013.85 1013.97 1014.09 1014.21 1014.33 1014.41 1014.49 1014.61 1014.77 1014.89 1015.05 1015.17 1015.33 1015.45 1015.61 1015.77 1015.89 1016.01 1016.13 1016.25 1016.33 1016.45 1016.61 1016.73 1016.89 1017.01 1017.05 1017.17 1017.33 1017.45 1017.61 1017.77 1017.89 1018.05 1018.25 1018.37 1018.49 1018.61 1018.73 1018.85 1018.97 1019.17 1019.33 1019.45 1019.53 1019.61 1019.73 1019.77 1019.85 1019.89 1019.97 1020.09 1020.21 1020.25 1020.33
1011.21 1011.45 1011.61 1011.81 1012.01 1012.17 1012.33 1012.53 1012.73 1012.89 1013.13 1013.33 1013.45 1013.61 1013.77 1013.89 1014.01 1014.09 1014.17 1014.29 1014.45 1014.61 1014.81 1014.89 1015.05 1015.17 1015.33 1015.49 1015.61 1015.77 1015.89 1016.01 1016.09 1016.17 1016.33 1016.45 1016.61 1016.73 1016.89 1016.97 1017.09 1017.21 1017.33 1017.45 1017.65 1017.77 1017.93 1018.05 1018.21 1018.33 1018.49 1018.61 1018.73 1018.85 1019.01 1019.13 1019.29 1019.37 1019.45 1019.53 1019.61 1019.73 1019.81 1019.89 1019.93 1020.05 1020.17 1020.21 1020.29
1011.29 1011.45 1011.65 1011.85 1012.05 1012.17 1012.33 1012.53 1012.77 1012.93 1013.13 1013.29 1013.37 1013.45 1013.61 1013.77 1013.89 1014.01 1014.17 1014.33 1014.49 1014.61 1014.77 1014.89 1015.05 1015.17 1015.29 1015.45 1015.61 1015.73 1015.85 1016.01 1016.09 1016.21 1016.33 1016.45 1016.61 1016.73 1016.89 1017.01 1017.17 1017.29 1017.45 1017.61 1017.73 1017.85 1018.01 1018.13 1018.25 1018.33 1018.45 1018.53 1018.69 1018.81 1018.97 1019.09 1019.21 1019.33 1019.45 1019.45 1019.57 1019.69 1019.77 1019.85 1019.93 1020.05 1020.13 1020.17 1020.25
1011.41 1011.57 1011.73 1011.89 1012.05 1012.17 1012.37 1012.57 1012.73 1012.89 1013.09 1013.21 1013.33 1013.45 1013.57 1013.69 1013.85 1014.05 1014.17 1014.33 1014.45 1014.61 1014.77 1014.85 1015.01 1015.13 1015.25 1015.41 1015.57 1015.69 1015.85 1015.97 1016.13 1016.25 1016.33 1016.49 1016.61 1016.77 1016.89 1017.01 1017.17 1017.33 1017.49 1017.69 1017.77 1017.89 1018.05 1018.17 1018.29 1018.37 1018.49 1018.61 1018.73 1018.85 1019.01 1019.13 1019.21 1019.29 1019.33 1019.41 1019.53 1019.61 1019.73 1019.81 1019.89 1019.97 1020.05 1020.13 1020.17
1011.53 1011.65 1011.81 1012.01 1012.13 1012.29 1012.45 1012.61 1012.77 1012.89 1013.05 1013.17 1013.33 1013.45 1013.61 1013.77 1013.89 1014.01 1014.13 1014.25 1014.45 1014.61 1014.77 1014.85 1015.01 1015.17 1015.29 1015.45 1015.61 1015.73 1015.85 1015.97 1016.05 1016.21 1016.33 1016.45 1016.61 1016.73 1016.89 1017.01 1017.17 1017.33 1017.49 1017.65 1017.81 1017.97 1018.09 1018.17 1018.29 1018.41 1018.53 1018.65 1018.77 1018.89 1019.05 1019.13 1019.21 1019.25 1019.33 1019.41 1019.49 1019.61 1019.73 1019.81 1019.89 1019.97 1020.05 1020.05 1020.13
1011.49 1011.65 1011.81 1012.01 1012.17 1012.33 1012.49 1012.69 1012.81 1012.93 1013.05 1013.21 1013.37 1013.53 1013.65 1013.77 1013.89 1014.01 1014.13 1014.29 1014.49 1014.65 1014.77 1014.85 1015.05 1015.17 1015.33 1015.45 1015.57 1015.65 1015.77 1015.85 1015.97 1016.13 1016.33 1016.45 1016.61 1016.73 1016.85 1016.97 1017.17 1017.33 1017.49 1017.69 1017.89 1018.01 1018.13 1018.21 1018.33 1018.49 1018.61 1018.73 1018.81 1018.89 1019.05 1019.13 1019.17 1019.25 1019.33 1019.41 1019.45 1019.57 1019.65 1019.77 1019.85 1019.93 1019.97 1020.01 1020.05
1011.49 1011.65 1011.81 1012.01 1012.17 1012.37 1012.53 1012.69 1012.89 1013.01 1013.13 1013.25 1013.41 1013.53 1013.69 1013.77 1013.89 1014.05 1014.17 1014.41 1014.53 1014.65 1014.77 1014.89 1015.05 1015.17 1015.29 1015.41 1015.49 1015.61 1015.73 1015.89 1016.01 1016.17 1016.33 1016.49 1016.61 1016.77 1016.89 1017.05 1017.21 1017.37 1017.57 1017.73 1017.89 1018.05 1018.17 1018.25 1018.33 1018.49 1018.57 1018.69 1018.77 1018.89 1018.97 1019.09 1019.17 1019.21 1019.33 1019.37 1019.41 1019.45 1019.61 1019.65 1019.77 1019.89 1019.89 1019.97 1020.05
1011.49 1011.69 1011.89 1012.05 1012.25 1012.41 1012.53 1012.69 1012.89 1013.01 1013.17 1013.29 1013.41 1013.53 1013.65 1013.77 1013.89 1014.05 1014.25 1014.45 1014.53 1014.65 1014.81 1014.97 1015.05 1015.17 1015.21 1015.37 1015.45 1015.61 1015.81 1015.97 1016.09 1016.21 1016.37 1016.53 1016.69 1016.85 1017.01 1017.17 1017.29 1017.45 1017.61 1017.77 1017.89 1018.05 1018.13 1018.25 1018.33 1018.41 1018.49 1018.61 1018.73 1018.81 1018.89 1018.97 1019.09 1019.17 1019.25 1019.33 1019.41 1019.45 1019.53 1019.61 1019.69 1019.81 1019.89 1019.93 1019.97
1011.57 1011.77 1011.93 1012.13 1012.29 1012.41 1012.57 1012.77 1012.89 1013.05 1013.17 1013.33 1013.45 1013.57 1013.69 1013.85 1014.01 1014.17 1014.29 1014.41 1014.53 1014.69 1014.89 1015.05 1015.13 1015.17 1015.33 1015.45 1015.61 1015.73 1015.89 1016.05 1016.17 1016.33 1016.45 1016.57 1016.77 1016.89 1017.05 1017.21 1017.33 1017.49 1017.61 1017.77 1017.85 1017.97 1018.05 1018.13 1018.21 1018.33 1018.45 1018.57 1018.65 1018.77 1018.89 1018.93 1019.05 1019.09 1019.21 1019.29 1019.33 1019.41 1019.45 1019.57 1019.61 1019.77 1019.85 1019.89 1019.89
1011.69 1011.85 1012.05 1012.17 1012.33 1012.49 1012.61 1012.81 1012.93 1013.05 1013.17 1013.33 1013.45 1013.61 1013.77 1013.93 1014.09 1014.17 1014.29 1014.49 1014.61 1014.77 1014.89 1015.05 1015.17 1015.33 1015.45 1015.57 1015.69 1015.85 1016.01 1016.13 1016.29 1016.41 1016.53 1016.69 1016.85 1016.97 1017.13 1017.25 1017.37 1017.49 1017.61 1017.69 1017.81 1017.89 1017.93 1018.05 1018.13 1018.25 1018.33 1018.49 1018.61 1018.73 1018.85 1018.93 1019.01 1019.05 1019.13 1019.17 1019.25 1019.33 1019.41 1019.49 1019.61 1019.69 1019.77 1019.85 1019.81
1011.81 1011.97 1012.13 1012.29 1012.41 1012.53 1012.69 1012.85 1012.97 1013.13 1013.29 1013.41 1013.57 1013.77 1013.89 1014.05 1014.17 1014.29 1014.41 1014.61 1014.73 1014.89 1015.05 1015.17 1015.33 1015.45 1015.61 1015.77 1015.85 1015.97 1016.13 1016.25 1016.37 1016.49 1016.61 1016.77 1016.93 1017.05 1017.17 1017.29 1017.45 1017.49 1017.57 1017.65 1017.77 1017.85 1017.89 1018.01 1018.09 1018.17 1018.29 1018.45 1018.57 1018.69 1018.77 1018.89 1019.01 1019.05 1019.13 1019.17 1019.17 1019.29 1019.37 1019.45 1019.57 1019.61 1019.73 1019.77 1019.77
1011.97 1012.13 1012.21 1012.33 1012.49 1012.61 1012.77 1012.89 1013.05 1013.25 1013.41 1013.57 1013.77 1013.89 1014.05 1014.17 1014.29 1014.37 1014.49 1014.65 1014.85 1015.05 1015.17 1015.33 1015.45 1015.61 1015.77 1015.89 1016.01 1016.13 1016.25 1016.37 1016.49 1016.61 1016.73 1016.85 1016.97 1017.09 1017.21 1017.33 1017.45 1017.53 1017.61 1017.65 1017.77 1017.85 1017.93 1018.01 1018.09 1018.17 1018.25 1018.41 1018.49 1018.61 1018.77 1018.89 1018.97 1019.05 1019.13 1019.17 1019.21 1019.25 1019.33 1019.37 1019.45 1019.57 1019.61 1019.65 1019.65
1012.13 1012.25 1012.33 1012.49 1012.61 1012.77 1012.89 1013.05 1013.25 1013.45 1013.61 1013.77 1013.93 1014.05 1014.17 1014.29 1014.41 1014.53 1014.65 1014.81 1014.97 1015.17 1015.33 1015.49 1015.61 1015.77 1015.89 1016.05 1016.17 1016.25 1016.33 1016.45 1016.57 1016.69 1016.77 1016.89 1017.01 1017.13 1017.21 1017.33 1017.45 1017.53 1017.61 1017.69 1017.77 1017.89 1017.97 1018.05 1018.13 1018.17 1018.29 1018.41 1018.49 1018.61 1018.73 1018.85 1018.93 1019.01 1019.05 1019.17 1019.17 1019.25 1019.33 1019.37 1019.41 1019.49 1019.57 1019.61 1019.61
1012.25 1012.41 1012.53 1012.61 1012.77 1012.93 1013.09 1013.29 1013.49 1013.69 1013.89 1014.05 1014.13 1014.21 1014.33 1014.41 1014.53 1014.69 1014.89 1015.05 1015.17 1015.29 1015.45 1015.61 1015.77 1015.89 1016.05 1016.17 1016.25 1016.33 1016.45 1016.53 1016.61 1016.77 1016.85 1016.93 1017.05 1017.17 1017.25 1017.37 1017.45 1017.57 1017.61 1017.73 1017.81 1017.89 1018.01 1018.09 1018.17 1018.25 1018.33 1018.41 1018.53 1018.61 1018.73 1018.81 1018.89 1018.97 1019.05 1019.17 1019.17 1019.29 1019.37 1019.41 1019.45 1019.45 1019.49 1019.57 1019.57
1012.41 1012.57 1012.73 1012.89 1013.01 1013.17 1013.33 1013.53 1013.77 1013.89 1014.05 1014.17 1014.25 1014.37 1014.49 1014.61 1014.73 1014.89 1015.05 1015.21 1015.33 1015.41 1015.53 1015.73 1015.89 1016.05 1016.17 1016.29 1016.33 1016.49 1016.57 1016.65 1016.73 1016.81 1016.89 1017.01 1017.13 1017.21 1017.33 1017.41 1017.53 1017.65 1017.77 1017.85 1017.93 1018.01 1018.05 1018.17 1018.21 1018.33 1018.37 1018.45 1018.53 1018.65 1018.77 1018.85 1018.93 1019.05 1019.13 1019.21 1019.29 1019.37 1019.45 1019.49 1019.49 1019.53 1019.53 1019.53 1019.53
1012.65 1012.77 1012.93 1013.09 1013.25 1013.41 1013.61 1013.81 1013.93 1014.05 1014.17 1014.29 1014.45 1014.53 1014.65 1014.81 1014.93 1015.09 1015.25 1015.37 1015.45 1015.57 1015.69 1015.85 1016.01 1016.17 1016.29 1016.41 1016.49 1016.61 1016.77 1016.85 1016.89 1016.97 1017.05 1017.13 1017.21 1017.33 1017.45 1017.53 1017.69 1017.81 1017.93 1018.01 1018.05 1018.09 1018.17 1018.25 1018.33 1018.37 1018.45 1018.49 1018.61 1018.77 1018.85 1018.89 1019.05 1019.13 1019.21 1019.33 1019.37 1019.45 1019.49 1019.53 1019.57 1019.61 1019.57 1019.57 1019.57
1012.89 1013.05 1013.17 1013.33 1013.45 1013.65 1013.81 1013.97 1014.09 1014.17 1014.33 1014.49 1014.61 1014.77 1014.89 1015.05 1015.21 1015.37 1015.49 1015.57 1015.65 1015.77 1015.89 1016.09 1016.21 1016.33 1016.45 1016.57 1016.69 1016.81 1016.97 1017.05 1017.17 1017.17 1017.21 1017.33 1017.41 1017.49 1017.61 1017.69 1017.81 1017.97 1018.05 1018.13 1018.17 1018.21 1018.33 1018.33 1018.41 1018.49 1018.57 1018.65 1018.77 1018.89 1018.93 1019.01 1019.13 1019.21 1019.33 1019.37 1019.45 1019.53 1019.57 1019.61 1019.61 1019.65 1019.65 1019.65 1019.65
1013.13 1013.25 1013.41 1013.53 1013.69 1013.81 1013.97 1014.09 1014.21 1014.37 1014.49 1014.69 1014.85 1014.97 1015.13 1015.33 1015.45 1015.61 1015.69 1015.77 1015.89 1016.05 1016.21 1016.37 1016.49 1016.61 1016.73 1016.77 1016.89 1016.97 1017.09 1017.21 1017.37 1017.45 1017.53 1017.61 1017.65 1017.77 1017.85 1017.89 1018.01 1018.17 1018.29 1018.33 1018.37 1018.41 1018.45 1018.49 1018.57 1018.65 1018.73 1018.81 1018.89 1019.01 1019.05 1019.13 1019.17 1019.29 1019.37 1019.45 1019.49 1019.57 1019.61 1019.65 1019.69 1019.73 1019.73 1019.73 1019.73
1013.29 1013.41 1013.57 1013.73 1013.85 1013.97 1014.09 1014.25 1014.37 1014.57 1014.77 1014.93 1015.05 1015.21 1015.33 1015.53 1015.69 1015.77 1015.89 1016.05 1016.17 1016.33 1016.49 1016.61 1016.81 1016.93 1017.01 1017.05 1017.05 1017.13 1017.17 1017.33 1017.49 1017.61 1017.77 1017.89 1017.93 1018.01 1018.05 1018.13 1018.17 1018.33 1018.41 1018.49 1018.53 1018.53 1018.53 1018.61 1018.69 1018.77 1018.85 1018.93 1019.05 1019.09 1019.17 1019.25 1019.33 1019.41 1019.45 1019.49 1019.57 1019.61 1019.65 1019.73 1019.77 1019.81 1019.77 1019.77 1019.77
1013.41 1013.53 1013.69 1013.85 1014.05 1014.17 1014.29 1014.45 1014.61 1014.77 1015.01 1015.17 1015.29 1015.45 1015.57 1015.73 1015.89 1016.01 1016.17 1016.33 1016.49 1016.61 1016.77 1016.93 1017.05 1017.17 1017.21 1017.29 1017.33 1017.37 1017.45 1017.57 1017.69 1017.81 1017.93 1018.05 1018.13 1018.17 1018.21 1018.29 1018.37 1018.49 1018.53 1018.49 1018.41 1018.41 1018.49 1018.61 1018.73 1018.81 1018.89 1019.01 1019.09 1019.17 1019.29 1019.37 1019.45 1019.45 1019.49 1019.57 1019.61 1019.69 1019.73 1019.77 1019.81 1019.85 1019.85 1019.85 1019.89
1013.57 1013.73 1013.89 1014.05 1014.17 1014.33 1014.49 1014.65 1014.85 1015.05 1015.21 1015.37 1015.53 1015.65 1015.81 1015.97 1016.09 1016.21 1016.33 1016.57 1016.77 1016.89 1017.01 1017.13 1017.21 1017.33 1017.37 1017.45 1017.53 1017.65 1017.77 1017.89 1017.93 1018.01 1018.05 1018.17 1018.25 1018.33 1018.33 1018.45 1018.49 1018.57 1018.57 1018.45 1018.33 1018.33 1018.45 1018.57 1018.69 1018.81 1018.93 1019.05 1019.17 1019.21 1019.33 1019.45 1019.53 1019.61 1019.61 1019.69 1019.73 1019.77 1019.77 1019.77 1019.77 1019.81 1019.85 1019.89 1019.89
1013.77 1013.93 1014.09 1014.25 1014.37 1014.57 1014.77 1014.93 1015.09 1015.25 1015.41 1015.61 1015.73 1015.89 1016.05 1016.17 1016.29 1016.41 1016.57 1016.77 1016.97 1017.09 1017.21 1017.33 1017.41 1017.45 1017.57 1017.65 1017.73 1017.89 1018.01 1018.13 1018.17 1018.21 1018.25 1018.33 1018.37 1018.45 1018.49 1018.57 1018.57 1018.61 1018.57 1018.37 1018.33 1018.33 1018.41 1018.53 1018.69 1018.89 1019.05 1019.13 1019.17 1019.29 1019.37 1019.49 1019.61 1019.77 1019.77 1019.85 1019.89 1019.89 1019.89 1019.89 1019.89 1019.89 1019.89 1019.89 1019.93
1013.93 1014.13 1014.29 1014.45 1014.61 1014.85 1015.05 1015.17 1015.33 1015.45 1015.65 1015.81 1015.97 1016.17 1016.29 1016.33 1016.49 1016.61 1016.81 1017.01 1017.17 1017.25 1017.41 1017.57 1017.65 1017.69 1017.77 1017.85 1017.97 1018.09 1018.21 1018.33 1018.37 1018.41 1018.45 1018.45 1018.49 1018.57 1018.57 1018.61 1018.61 1018.53 1018.41 1018.33 1018.33 1018.33 1018.41 1018.49 1018.69 1018.89 1019.05 1019.17 1019.25 1019.33 1019.45 1019.61 1019.77 1019.89 1019.93 1019.97 1020.01 1020.01 1020.01 1020.01 1020.05 1020.05 1020.05 1020.01 1019.97
1014.13 1014.33 1014.49 1014.65 1014.89 1015.09 1015.25 1015.37 1015.57 1015.77 1015.93 1016.05 1016.17 1016.33 1016.41 1016.53 1016.69 1016.89 1017.05 1017.17 1017.33 1017.45 1017.61 1017.77 1017.85 1017.85 1017.93 1018.09 1018.25 1018.33 1018.45 1018.49 1018.57 1018.57 1018.57 1018.57 1018.61 1018.65 1018.69 1018.69 1018.73 1018.61 1018.49 1018.37 1018.45 1018.49 1018.49 1018.57 1018.73 1018.89 1019.05 1019.21 1019.37 1019.57 1019.73 1019.85 1019.93 1020.01 1020.05 1020.13 1020.17 1020.17 1020.17 1020.17 1020.17 1020.17 1020.17 1020.17 1020.09
1014.33 1014.45 1014.61 1014.89 1015.13 1015.33 1015.49 1015.65 1015.85 1015.97 1016.13 1016.25 1016.37 1016.49 1016.61 1016.77 1016.97 1017.13 1017.29 1017.41 1017.61 1017.77 1017.89 1017.93 1017.97 1018.05 1018.21 1018.33 1018.45 1018.49 1018.61 1018.73 1018.77 1018.69 1018.65 1018.65 1018.73 1018.77 1018.81 1018.81 1018.81 1018.73 1018.57 1018.49 1018.53 1018.57 1018.61 1018.65 1018.81 1019.01 1019.21 1019.41 1019.61 1019.85 1020.05 1020.13 1020.17 1020.21 1020.25 1020.29 1020.33 1020.33 1020.33 1020.33 1020.33 1020.33 1020.33 1020.25 1020.17
1014.49 1014.61 1014.81 1015.09 1015.33 1015.61 1015.77 1015.93 1016.05 1016.17 1016.33 1016.41 1016.53 1016.65 1016.81 1017.05 1017.29 1017.45 1017.61 1017.77 1017.89 1018.05 1018.09 1018.05 1018.13 1018.33 1018.49 1018.57 1018.61 1018.73 1018.85 1018.89 1018.89 1018.89 1018.85 1018.85 1018.89 1018.93 1018.97 1018.97 1018.89 1018.81 1018.73 1018.65 1018.69 1018.73 1018.77 1018.89 1019.05 1019.21 1019.45 1019.73 1019.93 1020.17 1020.29 1020.33 1020.33 1020.41 1020.45 1020.49 1020.53 1020.49 1020.49 1020.49 1020.49 1020.49 1020.45 1020.37 1020.29
1014.65 1014.81 1015.01 1015.29 1015.57 1015.81 1016.05 1016.17 1016.33 1016.37 1016.49 1016.61 1016.73 1016.89 1017.17 1017.41 1017.61 1017.81 1017.89 1018.01 1018.09 1018.17 1018.17 1018.17 1018.33 1018.49 1018.61 1018.77 1018.81 1018.89 1019.01 1019.05 1019.09 1019.09 1019.09 1019.05 1019.05 1019.09 1019.13 1019.09 1019.05 1018.97 1018.93 1018.93 1018.97 1019.05 1019.17 1019.25 1019.41 1019.57 1019.77 1019.97 1020.13 1020.29 1020.37 1020.49 1020.53 1020.61 1020.61 1020.69 1020.69 1020.69 1020.65 1020.61 1020.61 1020.61 1020.57 1020.53 1020.49
1014.89 1015.01 1015.21 1015.49 1015.81 1016.05 1016.25 1016.37 1016.49 1016.57 1016.69 1016.85 1017.05 1017.25 1017.45 1017.69 1017.89 1018.05 1018.13 1018.17 1018.25 1018.29 1018.33 1018.49 1018.57 1018.73 1018.89 1018.93 1019.05 1019.13 1019.21 1019.25 1019.33 1019.33 1019.29 1019.25 1019.21 1019.21 1019.21 1019.21 1019.25 1019.21 1019.21 1019.33 1019.33 1019.45 1019.53 1019.65 1019.77 1019.89 1020.05 1020.17 1020.33 1020.49 1020.57 1020.61 1020.65 1020.77 1020.81 1020.89 1020.89 1020.89 1020.89 1020.85 1020.81 1020.77 1020.77 1020.69 1020.61
1015.05 1015.21 1015.45 1015.77 1016.05 1016.25 1016.45 1016.53 1016.61 1016.77 1016.89 1017.13 1017.33 1017.53 1017.69 1017.85 1018.05 1018.21 1018.33 1018.49 1018.49 1018.61 1018.69 1018.77 1018.89 1019.05 1019.13 1019.21 1019.21 1019.33 1019.41 1019.45 1019.53 1019.53 1019.49 1019.41 1019.33 1019.33 1019.37 1019.45 1019.57 1019.57 1019.61 1019.61 1019.69 1019.77 1019.85 1019.93 1020.05 1020.17 1020.29 1020.41 1020.53 1020.65 1020.73 1020.77 1020.81 1020.89 1021.01 1021.05 1021.05 1021.05 1021.05 1021.05 1021.01 1020.97 1020.93 1020.89 1020.77
1015.17 1015.45 1015.73 1015.97 1016.17 1016.37 1016.57 1016.69 1016.81 1016.89 1017.09 1017.37 1017.65 1017.85 1017.93 1018.05 1018.21 1018.41 1018.57 1018.65 1018.73 1018.85 1019.01 1019.13 1019.21 1019.33 1019.41 1019.49 1019.49 1019.53 1019.57 1019.65 1019.69 1019.65 1019.61 1019.57 1019.49 1019.49 1019.61 1019.77 1019.89 1019.89 1019.93 1019.93 1019.97 1020.05 1020.13 1020.21 1020.33 1020.41 1020.49 1020.61 1020.77 1020.85 1020.89 1020.97 1021.05 1021.13 1021.17 1021.21 1021.21 1021.25 1021.21 1021.17 1021.17 1021.13 1021.05 1020.97 1020.89
1015.33 1015.57 1015.85 1016.17 1016.37 1016.53 1016.65 1016.81 1016.97 1017.13 1017.33 1017.61 1017.85 1018.05 1018.21 1018.37 1018.53 1018.69 1018.77 1018.77 1018.85 1019.05 1019.21 1019.37 1019.41 1019.45 1019.57 1019.65 1019.77 1019.81 1019.81 1019.85 1019.89 1019.89 1019.85 1019.77 1019.77 1019.77 1019.89 1020.01 1020.13 1020.17 1020.17 1020.21 1020.25 1020.33 1020.37 1020.49 1020.57 1020.65 1020.73 1020.85 1020.97 1021.05 1021.13 1021.17 1021.29 1021.33 1021.37 1021.41 1021.45 1021.45 1021.45 1021.37 1021.33 1021.29 1021.17 1021.05 1020.97
1015.53 1015.69 1015.93 1016.25 1016.49 1016.69 1016.81 1016.93 1017.13 1017.33 1017.61 1017.89 1018.09 1018.29 1018.45 1018.61 1018.81 1018.93 1018.97 1018.89 1019.01 1019.21 1019.41 1019.57 1019.61 1019.73 1019.85 1019.93 1020.05 1020.17 1020.17 1020.13 1020.09 1020.09 1020.09 1020.05 1020.05 1020.09 1020.17 1020.25 1020.33 1020.41 1020.45 1020.49 1020.49 1020.57 1020.65 1020.77 1020.81 1020.89 1020.97 1021.09 1021.17 1021.25 1021.33 1021.37 1021.45 1021.53 1021.57 1021.57 1021.61 1021.61 1021.61 1021.57 1021.49 1021.45 1021.37 1021.21 1021.05
1015.77 1015.89 1016.05 1016.33 1016.61 1016.81 1016.97 1017.13 1017.33 1017.61 1017.89 1018.13 1018.33 1018.49 1018.61 1018.77 1019.01 1019.13 1019.17 1019.09 1019.17 1019.41 1019.61 1019.81 1019.93 1020.05 1020.17 1020.21 1020.33 1020.41 1020.45 1020.37 1020.33 1020.33 1020.37 1020.41 1020.41 1020.37 1020.41 1020.45 1020.53 1020.61 1020.65 1020.73 1020.77 1020.81 1020.89 1020.97 1021.05 1021.09 1021.17 1021.29 1021.37 1021.45 1021.49 1021.57 1021.61 1021.65 1021.69 1021.73 1021.73 1021.77 1021.73 1021.73 1021.65 1021.61 1021.53 1021.41 1021.17
1015.97 1016.09 1016.25 1016.49 1016.77 1016.93 1017.13 1017.33 1017.61 1017.85 1018.09 1018.33 1018.53 1018.73 1018.85 1019.01 1019.17 1019.33 1019.41 1019.37 1019.45 1019.61 1019.77 1020.01 1020.17 1020.33 1020.41 1020.41 1020.49 1020.61 1020.65 1020.69 1020.65 1020.61 1020.61 1020.69 1020.65 1020.65 1020.61 1020.65 1020.73 1020.77 1020.81 1020.89 1020.97 1021.05 1021.13 1021.17 1021.29 1021.33 1021.41 1021.49 1021.57 1021.61 1021.65 1021.73 1021.77 1021.77 1021.81 1021.81 1021.85 1021.81 1021.81 1021.81 1021.77 1021.73 1021.65 1021.57 1021.41
1016.21 1016.33 1016.49 1016.65 1016.89 1017.09 1017.33 1017.61 1017.89 1018.09 1018.29 1018.49 1018.65 1018.89 1019.05 1019.17 1019.37 1019.53 1019.61 1019.69 1019.73 1019.85 1020.01 1020.21 1020.41 1020.53 1020.57 1020.57 1020.65 1020.77 1020.89 1021.01 1021.01 1020.93 1020.89 1020.93 1020.89 1020.89 1020.85 1020.89 1020.93 1020.93 1020.93 1021.05 1021.13 1021.21 1021.33 1021.41 1021.49 1021.61 1021.65 1021.77 1021.77 1021.77 1021.77 1021.85 1021.89 1021.89 1021.93 1021.93 1021.93 1021.89 1021.89 1021.89 1021.85 1021.81 1021.77 1021.69 1021.57
1016.45 1016.57 1016.73 1016.93 1017.13 1017.33 1017.57 1017.85 1018.13 1018.33 1018.49 1018.61 1018.85 1019.05 1019.25 1019.45 1019.57 1019.69 1019.77 1019.89 1020.01 1020.13 1020.29 1020.49 1020.61 1020.69 1020.73 1020.77 1020.85 1020.97 1021.09 1021.25 1021.33 1021.33 1021.29 1021.21 1021.17 1021.17 1021.13 1021.13 1021.13 1021.13 1021.13 1021.13 1021.17 1021.33 1021.45 1021.53 1021.61 1021.73 1021.81 1021.89 1021.93 1021.93 1021.89 1021.89 1021.97 1022.05 1022.09 1022.09 1022.09 1022.05 1022.01 1021.97 1021.93 1021.89 1021.89 1021.81 1021.73
Wind_Speed
9 8 7 7 7 7 6 5 6 6 6 7 7 7 7 7 7 7 6 7 7 7 6 6 6 6 7 8 10 10 11 10 10 10 10 11 10 10 10 9 9 9 9 9 8 8 7 7 6 5 4 5 5 5 5 4 5 6 6 6 6 6 6 7 8 8 9 8 7
9 9 8 8 7 6 6 5 5 6 6 6 7 7 7 7 7 7 7 7 7 6 6 5 6 7 8 9 9 10 10 10 10 10 10 10 10 10 10 10 10 10 10 9 8 7 6 6 5 5 4 4 4 4 4 4 5 5 6 7 6 5 5 7 8 9 9 8 7
9 9 9 9 8 8 7 6 6 7 8 7 6 6 7 7 7 7 7 7 7 6 5 5 6 7 8 9 8 9 9 9 10 9 9 9 9 10 10 10 10 10 9 8 7 6 5 5 5 4 4 3 4 4 4 4 4 5 6 7 5 4 5 6 7 7 7 6 7
9 9 9 10 11 10 9 8 9 9 9 7 7 7 6 6 6 6 6 6 6 6 6 6 6 7 8 8 8 8 9 9 9 9 9 9 9 9 9 9 9 9 8 7 6 6 5 5 4 4 4 4 5 4 4 3 4 4 4 5 4 4 5 5 6 5 5 5 6
9 9 10 10 12 12 10 9 10 10 9 7 6 6 6 5 5 5 5 6 6 7 7 7 6 6 6 7 8 8 8 8 8 8 8 9 8 8 8 8 9 8 8 7 7 7 7 6 4 4 4 4 4 4 3 4 4 4 3 3 4 4 5 5 4 4 4 4 4
9 9 9 10 11 11 9 9 10 10 8 7 7 7 7 5 5 6 6 7 7 7 7 7 6 6 6 7 7 8 8 8 8 8 8 8 7 6 6 7 8 7 7 7 7 7 7 7 4 4 4 3 3 3 3 4 4 4 4 3 4 4 4 4 3 3 3 4 4
9 10 10 10 10 10 9 9 9 9 8 7 9 10 9 8 8 8 8 7 6 6 6 6 6 6 6 6 6 7 7 7 7 7 7 7 6 6 6 6 6 5 5 5 5 5 5 5 4 3 3 3 3 3 3 4 4 4 4 4 4 3 3 4 3 2 3 5 5
9 9 10 10 10 10 10 10 9 8 8 7 9 10 11 10 10 9 8 7 6 6 6 5 6 7 7 7 7 7 7 6 6 6 6 6 5 5 5 5 4 4 3 3 4 4 4 3 3 3 3 2 2 3 3 4 5 5 5 5 3 3 3 4 3 3 3 5 5
7 8 9 9 9 9 10 10 10 9 9 9 9 10 10 10 9 9 8 7 6 6 5 5 6 7 7 7 7 6 6 6 6 6 6 5 5 5 5 4 4 4 4 4 4 4 4 3 2 2 2 1 1 2 3 4 5 5 5 5 3 3 3 3 3 3 4 4 5
8 8 8 9 9 9 9 9 10 10 10 9 9 9 9 8 8 8 7 6 5 5 5 5 6 6 6 7 7 6 6 6 6 6 6 5 5 5 5 4 4 4 4 4 4 4 4 3 3 2 2 1 2 2 3 4 5 5 5 3 3 3 3 3 3 3 4 4 5
9 9 9 9 9 9 9 9 9 9 9 9 9 8 8 8 8 7 6 5 5 6 6 6 6 6 6 6 7 7 7 6 6 6 5 5 5 5 4 4 4 4 4 4 4 4 3 3 3 3 2 2 2 3 3 4 5 5 5 3 4 4 4 4 4 4 4 4 5
10 9 9 9 9 9 9 9 8 8 8 8 8 8 8 8 7 7 6 5 6 6 6 6 6 7 7 6 6 6 5 5 5 5 4 4 4 4 3 3 4 4 4 4 4 3 3 3 3 4 4 3 3 3 4 5 5 5 5 4 4 5 5 5 4 4 4 4 5
10 9 9 9 9 10 9 8 8 7 7 8 8 8 7 7 6 6 6 6 6 6 5 5 6 7 6 6 5 4 4 4 4 4 4 4 4 4 3 3 4 4 4 4 4 4 4 4 4 5 5 5 4 4 4 5 5 5 5 5 5 5 5 5 5 4 4 5 5
9 9 9 9 9 9 9 8 7 6 7 8 7 7 6 6 6 6 6 7 6 5 5 5 5 4 4 3 3 3 4 4 4 4 4 4 4 4 4 3 4 4 4 4 4 5 5 5 5 5 5 5 5 5 5 5 5 5 5 5 5 6 6 6 5 5 5 6 6
9 9 9 9 9 8 8 7 6 6 6 7 6 6 5 5 5 5 6 6 5 4 4 4 3 3 2 3 3 4 4 4 4 4 4 4 4 4 4 4 4 4 4 4 5 5 5 5 5 6 5 5 5 5 5 5 5 5 5 5 6 6 6 6 5 5 5 6 6
8 8 9 9 9 8 7 7 5 5 5 5 5 4 4 4 4 4 5 5 4 3 3 4 3 3 3 4 4 4 4 4 4 4 4 4 4 4 4 4 4 4 4 4 4 4 4 4 5 5 5 5 5 5 5 5 5 5 5 5 6 6 6 6 5 6 6 6 7
8 8 8 9 9 8 7 6 5 4 4 4 4 4 4 4 4 4 4 4 4 4 4 4 4 4 4 4 4 4 4 4 4 4 4 4 4 4 4 4 4 4 4 4 4 4 4 4 4 4 5 5 5 5 5 5 5 5 5 5 6 6 6 6 6 6 6 7 7
7 7 7 8 8 7 6 6 5 4 4 5 4 4 4 4 4 4 4 4 5 5 5 5 4 4 4 4 4 4 4 4 4 4 4 4 4 4 4 4 4 4 4 4 4 4 4 4 3 3 4 4 4 4 5 5 5 5 5 5 5 5 5 5 5 5 5 6 7
7 7 6 6 6 6 6 6 5 5 5 5 4 4 4 5 5 5 5 5 5 6 6 6 5 5 5 5 5 4 4 4 4 5 4 4 4 4 3 3 3 3 3 3 3 3 3 3 3 3 3 3 3 3 4 4 4 4 4 5 4 4 4 4 4 5 5 6 6
6 6 6 6 6 6 6 6 6 6 5 5 5 6 6 5 6 6 6 5 5 6 6 6 6 6 5 5 5 5 4 4 4 5 5 4 4 3 3 3 3 3 3 3 3 3 3 2 3 3 3 3 3 3 3 3 3 2 2 2 2 2 2 2 3 4 5 6 6
6 6 6 6 6 7 7 6 6 6 6 6 7 7 6 6 6 6 6 6 6 6 6 6 6 6 6 6 6 5 4 4 4 4 4 4 4 4 3 3 3 3 3 3 3 3 3 2 2 2 2 3 3 2 2 2 2 1 1 0 0 0 1 1 2 3 4 5 5
6 6 6 7 7 7 7 7 7 7 7 7 7 7 7 7 7 7 6 6 7 7 7 6 6 6 6 6 6 5 5 4 5 5 5 5 5 4 4 3 4 4 4 3 3 3 3 3 3 3 3 3 3 3 3 2 2 2 2 2 2 1 1 1 1 2 3 3 4
6 7 7 7 8 8 8 8 8 8 8 8 8 8 8 8 7 7 7 7 7 7 7 6 6 6 6 6 6 6 6 6 6 6 5 6 5 5 5 4 4 4 4 3 3 3 3 4 4 4 4 4 4 4 3 3 3 2 2 2 2 2 1 1 1 1 2 3 3
7 7 7 7 8 8 8 8 9 9 8 8 8 8 8 8 8 8 8 8 8 8 7 6 6 6 6 6 6 6 6 7 7 7 7 7 6 6 6 5 5 4 3 2 2 2 3 3 3 4 4 4 3 3 3 3 3 3 2 2 1 1 1 1 1 1 1 2 2
8 8 8 8 8 8 9 9 9 9 9 8 8 8 9 8 8 9 9 9 9 8 8 7 7 6 6 7 7 7 7 7 7 7 7 7 7 6 6 5 4 3 2 1 2 3 3 3 3 3 3 3 2 2 2 3 3 3 2 2 1 1 1 1 1 1 1 2 2
9 9 9 9 9 9 9 9 10 9 9 9 9 9 9 8 9 9 10 10 9 9 8 8 7 7 7 7 8 8 8 7 7 7 7 7 7 7 6 5 3 2 2 2 4 4 5 5 5 4 3 2 2 2 2 2 3 3 2 2 1 1 1 2 2 2 2 2 2
10 10 9 9 10 10 10 9 10 10 9 9 9 9 9 8 9 10 10 10 9 9 9 8 8 8 8 8 9 9 9 7 7 7 8 8 8 7 6 4 3 2 2 5 6 6 6 7 7 6 4 3 2 2 2 2 3 3 2 2 1 1 2 2 3 3 3 3 3
10 10 10 10 11 10 10 10 10 10 10 10 10 9 9 10 11 11 10 10 9 9 8 8 7 6 7 8 9 9 9 8 7 7 7 8 8 7 6 4 3 3 5 8 8 7 7 7 8 7 6 4 3 3 3 3 2 2 2 2 2 2 2 3 3 3 3 4 3
11 11 11 12 11 10 10 10 10 10 10 10 10 10 11 11 11 11 11 10 10 9 8 6 6 6 7 8 8 9 9 8 7 7 8 8 8 7 6 5 4 5 8 11 10 9 8 8 9 8 7 5 3 3 3 3 3 3 3 3 3 3 3 3 3 3 3 4 4
11 11 12 12 11 11 10 10 10 10 10 10 11 11 12 12 12 11 11 11 10 9 7 6 7 8 9 9 9 9 9 8 7 7 8 9 9 7 6 5 4 5 8 12 11 11 10 10 10 9 9 8 6 5 4 4 4 4 4 4 5 5 5 5 5 5 5 5 5
11 12 12 13 12 11 10 10 10 10 10 10 12 12 13 13 12 11 11 10 10 9 9 10 11 11 11 9 9 9 9 8 8 8 8 9 9 7 6 5 5 7 10 14 14 14 13 13 13 12 12 12 9 7 5 5 6 6 6 6 7 7 7 6 7 7 7 7 7
12 12 13 13 12 11 10 10 10 11 12 13 13 13 13 13 11 10 9 9 9 10 11 12 13 12 11 11 10 10 10 9 8 8 8 8 7 7 7 6 7 9 13 17 17 17 17 17 17 16 16 14 11 9 8 7 8 8 8 9 9 9 8 7 7 8 8 8 8
12 13 13 14 13 11 11 11 11 12 13 13 13 13 13 12 11 10 9 9 9 10 11 12 12 12 11 11 11 11 10 9 9 8 8 8 8 9 9 8 8 12 16 19 18 19 19 19 19 18 17 15 12 10 9 9 8 8 8 9 9 9 9 9 8 8 8 8 7
13 13 14 13 13 12 11 11 12 13 13 14 13 13 12 12 12 11 10 10 10 10 11 11 11 11 10 10 11 10 10 9 8 8 8 9 10 11 11 9 9 13 17 19 19 19 20 20 20 19 18 16 12 10 10 10 9 9 9 9 9 9 9 8 8 7 7 7 6
13 14 14 13 12 12 12 12 13 13 14 14 13 12 12 12 12 12 11 11 11 11 11 11 11 10 10 10 10 11 11 10 10 9 10 10 12 13 13 12 12 15 19 20 20 20 20 19 19 18 16 13 10 9 10 11 10 10 10 10 9 9 9 8 8 7 6 6 6
14 14 14 13 13 12 12 13 13 14 14 14 13 13 12 12 11 10 11 12 13 13 12 11 11 11 12 11 11 11 11 11 11 11 11 12 13 14 14 13 14 16 19 19 19 19 19 19 18 17 14 11 8 8 8 9 8 9 9 9 9 9 8 8 7 7 6 6 6
13 14 14 14 13 13 13 13 14 14 14 13 13 12 12 11 10 9 9 11 13 13 12 12 12 12 12 12 11 10 10 10 11 12 12 12 12 12 12 12 13 15 17 19 19 19 18 18 17 15 13 9 8 7 7 7 7 7 8 8 8 7 7 6 6 7 7 7 7
12 13 14 14 13 13 13 13 14 14 14 13 12 11 11 11 9 9 9 11 12 13 13 12 12 12 11 11 11 11 11 11 12 12 12 11 11 11 11 10 11 13 15 18 18 18 18 17 16 14 12 9 8 7 7 6 6 6 6 6 6 6 6 5 5 6 7 8 10
12 13 14 14 14 13 14 14 14 14 13 13 12 11 11 10 9 9 9 10 12 12 13 12 12 11 11 12 12 12 12 12 12 12 12 11 11 11 10 9 9 11 14 18 18 18 18 17 17 15 12 9 7 6 6 6 6 6 6 5 5 5 5 5 5 5 6 8 12
11 12 13 14 14 14 14 14 13 13 12 13 12 12 11 11 10 10 9 10 11 12 12 12 11 11 11 12 12 12 12 12 11 11 11 11 11 12 11 9 8 10 13 17 18 18 18 17 16 15 12 8 6 6 5 5 6 6 6 5 5 5 5 5 5 5 6 7 9
11 12 13 14 14 14 15 14 13 12 12 13 13 12 11 11 10 10 10 10 11 11 11 11 11 11 11 11 11 12 12 12 11 11 11 11 11 11 11 9 8 8 10 14 17 18 18 17 16 14 12 8 6 5 5 5 6 6 6 5 5 5 5 5 6 6 6 7 7
Wind_Direction
169 167 164 161 163 164 164 162 161 162 165 169 170 171 172 174 177 180 183 186 190 193 195 197 198 197 194 190 191 195 199 203 204 204 206 208 210 210 209 208 207 208 209 210 207 205 204 203 201 202 203 202 203 204 203 195 192 194 197 202 208 207 205 205 214 219 221 223 225
165 162 158 157 157 155 153 154 157 162 166 171 171 171 172 174 177 180 184 189 192 192 192 193 195 193 191 190 193 196 199 202 203 204 207 209 210 209 208 209 209 209 208 208 205 202 200 197 196 201 205 204 201 204 204 197 188 189 196 203 206 205 205 209 215 217 219 223 225
161 158 156 156 156 155 155 158 163 167 170 172 171 171 172 176 179 182 185 189 189 188 188 189 192 192 191 190 194 197 200 201 202 204 207 210 210 209 209 210 210 210 209 206 199 194 189 184 190 198 206 208 205 205 202 189 182 187 196 204 203 204 209 218 219 217 215 219 221
157 157 157 159 160 162 164 166 169 170 171 170 169 170 173 177 179 180 182 183 184 186 189 189 189 190 190 190 194 198 201 201 200 203 207 211 210 209 209 210 209 208 205 198 191 184 178 173 181 194 204 207 208 207 202 180 178 187 198 206 205 208 214 224 222 219 217 220 220
159 160 161 163 165 166 168 168 170 170 169 166 166 169 174 176 176 176 176 180 187 190 190 187 186 187 189 190 194 198 201 202 201 204 209 213 212 209 207 209 210 209 204 198 193 187 181 176 181 193 201 204 204 201 191 167 174 185 199 207 208 213 218 226 227 226 226 230 231
161 161 162 163 165 166 167 168 168 167 166 164 167 171 175 176 176 178 181 186 189 188 184 181 182 184 186 188 193 198 201 202 204 208 211 214 212 207 204 209 211 208 202 196 192 188 185 181 185 193 198 198 204 198 181 159 173 188 201 209 210 213 219 227 226 226 231 240 246
159 159 159 161 163 163 164 164 164 163 162 164 171 175 178 179 180 183 185 185 182 179 178 179 182 183 184 186 192 197 200 203 207 209 210 212 210 206 202 202 201 199 194 187 181 181 181 181 183 190 195 194 198 189 180 172 183 194 206 214 212 212 216 226 223 219 224 237 241
153 154 156 158 160 160 160 160 160 161 164 170 176 179 180 180 181 181 181 180 178 177 178 180 182 182 183 185 191 196 199 200 204 207 209 209 206 202 197 190 179 168 157 147 153 162 170 174 185 195 200 197 197 192 187 184 192 202 212 219 215 210 211 218 217 215 219 226 231
146 149 151 154 157 158 158 159 161 163 168 174 179 181 180 179 179 178 178 181 178 176 175 178 180 180 181 184 189 193 196 197 201 204 206 205 203 199 194 182 168 156 147 141 150 159 165 170 184 195 199 189 184 179 179 184 198 209 217 222 215 209 208 212 210 210 213 218 224
147 148 150 153 155 156 156 157 161 165 168 174 178 178 178 177 177 178 180 180 169 169 173 178 176 177 180 184 189 192 194 197 199 200 201 200 199 196 191 186 177 168 160 154 155 158 163 170 185 194 192 168 161 159 166 180 199 210 217 220 211 206 203 203 198 201 208 215 222
150 152 153 155 155 154 154 156 161 166 169 172 175 176 177 178 180 179 175 163 160 168 176 176 173 176 182 189 194 196 198 200 200 198 195 195 195 192 189 185 175 166 158 151 149 154 163 176 188 192 185 162 157 156 163 176 193 204 211 214 210 208 206 202 197 201 210 217 223
151 153 154 153 153 153 154 158 163 167 170 171 173 176 179 181 179 172 163 155 164 173 177 175 176 181 188 195 197 196 193 192 188 185 184 186 184 178 170 161 153 149 148 146 149 157 170 184 191 189 183 171 173 172 172 177 189 200 207 208 209 212 214 211 204 205 211 216 225
150 150 151 150 151 152 155 159 163 167 170 171 174 177 179 179 170 163 160 163 174 177 176 175 181 188 193 196 192 186 177 168 166 166 166 164 156 149 142 135 136 139 145 150 155 165 178 189 193 192 188 183 182 177 174 177 187 196 203 207 211 219 223 221 213 208 210 215 226
146 147 148 149 151 153 156 159 162 167 171 173 175 175 174 167 162 162 166 173 177 174 169 172 180 185 185 177 169 159 149 141 144 147 149 147 139 136 136 134 136 143 151 160 167 177 186 193 192 190 186 180 177 172 170 176 186 194 201 208 217 224 229 229 217 211 211 219 229
143 145 147 148 152 154 157 159 162 166 170 172 170 167 163 156 158 164 169 171 166 157 149 153 157 149 131 117 124 125 126 127 133 135 133 128 124 126 130 131 138 148 157 165 171 181 187 189 187 184 181 177 174 172 174 181 190 197 205 212 220 227 232 232 220 214 214 221 232
140 143 146 149 153 155 158 160 160 162 162 161 153 147 145 143 150 155 156 151 138 125 119 125 125 113 98 90 99 107 115 120 123 122 119 115 116 120 125 129 137 146 153 159 166 174 178 179 177 176 176 175 176 178 182 188 195 203 210 217 223 228 232 232 223 218 219 224 233
138 142 146 150 153 155 154 153 147 143 138 131 122 121 123 128 135 138 135 126 118 110 107 107 107 103 96 90 93 100 108 112 113 113 113 115 119 123 128 133 141 148 153 159 165 169 170 168 166 167 169 173 177 182 187 192 199 207 214 221 225 229 231 231 225 221 221 227 235
136 140 144 148 148 146 141 133 122 114 109 107 105 105 109 116 121 118 111 105 109 110 108 102 98 97 98 96 95 98 104 108 109 110 112 115 120 126 133 139 146 154 161 167 171 172 169 163 161 162 166 170 176 182 189 196 204 211 217 223 227 229 230 228 223 221 223 229 238
132 134 135 135 131 125 117 108 102 100 99 99 100 99 99 103 106 103 97 92 102 108 109 104 97 95 95 97 96 96 98 103 106 108 109 111 116 123 131 137 143 152 159 166 169 168 164 160 161 163 166 169 173 180 189 198 206 214 219 224 228 229 228 226 225 225 228 234 242
121 122 120 116 110 104 99 95 96 97 98 98 97 95 93 91 93 94 95 94 98 102 104 105 102 100 98 98 94 90 87 89 96 101 103 102 104 108 115 123 125 126 126 128 134 138 141 145 151 157 161 164 166 171 179 189 197 204 213 221 228 232 233 233 234 235 238 242 249
104 104 103 100 98 96 95 95 97 97 96 94 92 91 88 85 84 87 91 94 94 94 96 99 102 103 103 100 94 86 78 73 78 84 88 90 87 88 92 101 103 101 98 98 103 108 111 115 119 127 134 138 137 139 145 150 149 143 136 129 120 310 275 259 253 251 251 253 258
94 93 94 95 97 98 99 99 97 95 92 89 88 87 85 82 82 82 84 85 84 85 85 86 89 92 95 96 95 90 83 74 69 69 71 75 73 69 67 77 83 81 79 80 86 89 90 88 86 88 92 97 95 96 97 99 99 95 86 76 66 55 37 359 306 282 273 270 270
97 96 96 97 99 100 100 98 95 92 90 88 87 86 86 84 83 81 78 77 78 78 77 77 76 77 81 87 92 93 91 83 73 65 60 59 58 54 50 54 62 62 60 60 71 80 84 82 78 78 80 84 83 83 82 83 88 90 87 78 69 58 43 28 2 326 300 287 281
101 100 99 98 98 98 98 96 93 90 89 88 88 88 88 87 84 81 78 75 76 75 75 74 73 72 73 74 76 81 84 83 77 68 61 55 54 51 49 50 53 52 50 51 75 93 97 91 84 81 80 81 82 84 85 88 93 97 98 91 76 54 32 21 12 349 324 306 293
101 100 98 97 97 96 94 93 92 91 91 91 90 89 88 87 86 84 81 77 75 75 75 74 73 71 70 67 64 64 66 70 71 70 66 60 57 55 54 54 52 47 41 49 96 109 113 110 105 96 89 88 90 90 89 86 90 94 96 97 84 39 351 343 354 351 338 319 306
99 97 95 96 95 93 92 92 93 94 94 92 90 88 87 87 87 86 83 79 76 74 73 73 71 70 69 68 65 63 61 62 65 69 71 69 63 59 56 54 48 35 28 54 82 97 108 114 115 114 110 106 103 96 86 76 74 77 81 86 82 45 352 340 344 346 345 337 323
98 96 95 94 92 91 92 94 95 94 93 92 90 89 89 88 86 83 81 79 77 74 71 68 68 69 70 69 66 66 65 66 67 70 72 73 69 64 58 52 39 30 46 64 75 87 101 113 119 122 121 113 104 96 88 79 71 69 70 69 64 43 14 357 351 349 349 351 343
100 99 98 94 92 92 93 94 94 93 92 92 91 91 89 86 83 81 80 79 77 74 71 68 69 70 70 68 67 68 69 69 70 72 73 73 71 67 60 49 32 39 60 70 73 80 92 107 120 126 128 118 101 89 84 81 73 64 54 47 42 32 23 12 5 360 355 352 352
103 102 99 96 95 94 93 92 93 93 93 93 92 89 86 82 80 80 79 78 75 74 74 74 74 73 72 71 71 71 70 69 71 75 76 74 69 64 57 46 33 48 63 71 73 78 86 99 115 123 125 114 92 72 62 59 55 48 41 35 29 25 22 18 14 9 4 359 2
104 103 100 98 96 94 92 92 94 95 94 93 90 87 85 81 79 78 77 76 75 76 79 82 79 76 75 75 75 73 71 70 71 73 75 74 70 63 54 43 34 51 65 70 72 76 83 93 105 109 104 87 72 61 53 50 50 49 46 43 38 35 33 31 27 23 20 19 20
104 102 100 98 95 93 93 93 93 93 93 91 88 86 83 81 78 77 78 80 82 84 85 83 81 79 77 76 76 75 74 73 70 70 71 73 70 64 54 43 40 56 66 68 69 72 76 81 85 85 80 72 68 65 63 62 61 58 56 53 49 47 46 45 42 39 36 35 34
104 102 101 98 96 96 95 94 94 92 91 89 87 85 83 82 80 80 80 84 86 85 84 82 81 80 78 76 76 75 74 72 69 68 69 71 69 64 57 48 52 62 67 68 69 71 72 75 76 76 75 74 74 74 73 73 70 66 63 60 56 54 52 51 50 47 44 42 41
104 103 101 100 99 98 97 96 95 93 90 88 87 87 87 87 85 82 80 80 81 80 80 80 80 80 79 78 78 76 73 70 68 66 66 69 70 67 62 54 60 66 69 70 71 73 75 76 78 78 79 78 78 77 75 75 73 69 65 61 57 54 52 51 50 48 46 45 43
106 104 102 102 102 101 99 98 96 94 91 88 87 87 89 89 87 85 82 81 80 79 78 78 79 79 79 79 79 78 76 72 67 64 65 69 71 70 68 62 65 68 70 73 74 76 78 79 80 81 80 79 78 75 74 73 72 69 65 62 56 52 48 46 44 43 41 41 40
109 106 105 104 104 103 102 100 97 95 92 90 88 87 87 87 88 88 89 90 87 84 82 80 81 81 79 76 76 76 75 72 69 67 67 70 73 73 72 69 71 71 72 74 76 77 79 80 81 81 80 79 77 75 73 72 70 67 64 60 54 48 42 39 36 32 30 30 34
111 109 108 107 105 104 103 101 98 95 93 93 92 90 88 87 87 90 94 95 91 88 85 84 82 80 78 74 71 70 70 71 70 69 68 70 73 75 76 75 74 74 74 75 77 78 79 81 81 81 80 78 76 74 73 72 69 66 62 58 52 45 38 34 29 23 18 16 25
111 111 110 108 106 105 103 101 98 96 95 94 94 94 93 91 90 91 94 96 92 89 87 84 81 79 78 76 72 68 66 68 70 69 68 67 71 74 77 78 77 76 76 76 77 78 79 80 80 80 80 78 76 74 72 71 68 64 60 56 50 43 36 31 27 21 15 10 18
110 111 110 109 107 105 103 101 99 98 98 97 97 96 95 95 93 92 93 95 94 93 90 86 83 82 81 80 76 70 65 64 67 68 67 65 67 70 74 76 77 78 78 77 78 78 78 79 79 79 79 78 76 75 73 70 66 62 58 53 48 40 33 29 25 21 17 12 15
108 108 108 107 106 104 102 100 100 101 102 101 99 97 95 94 93 92 91 92 94 95 93 90 87 86 84 83 79 72 66 61 61 63 65 64 64 66 68 70 73 77 80 80 79 79 79 79 79 79 78 78 76 75 73 71 65 61 56 50 44 38 33 29 26 23 20 14 13
105 105 105 105 105 104 102 100 101 102 103 103 101 99 97 97 97 96 94 91 92 92 92 91 89 88 86 83 80 75 69 62 58 57 59 60 60 61 62 63 65 73 80 83 82 81 80 80 80 79 79 78 76 74 73 71 65 59 53 46 41 37 32 29 28 25 22 16 11
103 103 102 103 103 103 103 102 102 102 102 101 101 101 101 101 100 98 96 92 91 91 90 90 89 87 85 83 81 77 72 66 59 55 54 55 54 54 54 55 55 62 73 82 83 83 82 81 80 80 81 80 77 73 71 69 64 59 53 46 41 37 34 30 30 28 24 18 12